Location: Bandys
(35.4750°N, 81.0830°W)
Time: 23:39:30
(UTC-05:00)

Daily predictions for brighter satellites

Satellite Brightness Start Highest point End
(mag) Time Altitude Azimuth Time Altitude Azimuth Time Altitude Azimuth
Cosmos 2154 Rocket 4.5 17:58:40 10° NNW 18:04:57 70° W 18:11:14 10° S
Cosmos 44 3.4 18:01:39 10° S 18:05:42 43° ESE 18:09:50 10° NE
Meteor 2-21 Rocket 4.4 17:59:56 10° N 18:06:03 73° E 18:12:04 10° SSE
Cosmos 1674 4.4 18:02:51 10° SSW 18:06:19 36° W 18:09:48 10° NNW
Cosmos 2181 Rocket 4.1 18:04:26 10° S 18:10:53 87° E 18:17:21 10° N
OAO 3 Rocket 3.2 18:06:41 10° W 18:11:23 86° S 18:16:08 10° E
SMAP 3.6 18:09:00 10° S 18:13:36 67° WSW 18:18:15 10° NNW
EO 1 Del DPAF 4.1 18:11:18 10° NE 18:14:41 29° E 18:18:03 10° SSE
ATLAS 2AS CENTAUR R/B 3.1 18:09:24 10° NNW 18:17:16 82° WSW 18:24:25 10° SSE
Cosmos 968 Rocket 3.4 18:14:12 10° NNW 18:19:20 68° ENE 18:24:24 10° SSE
Cosmos 1626 2.8 18:18:01 10° SSE 18:21:21 32° E 18:24:41 10° NNE
Cosmos 2221 2.7 18:17:06 10° N 18:21:28 78° W 18:25:51 10° S
Landsat 4 3.8 18:19:08 10° NNE 18:22:48 54° E 18:26:26 10° S
Cosmos 1703 4.4 18:22:40 10° SE 18:25:52 24° E 18:29:06 10° NE
Cosmos 2263 4.4 18:20:20 10° NNW 18:26:07 82° WSW 18:31:50 10° SSE
MTI 3.7 18:23:04 10° NNE 18:26:15 63° E 18:29:24 10° S
Cosmos 2058 4.2 18:25:29 10° SE 18:28:39 21° E 18:31:50 10° NE
Cosmos 2369 Rocket 3.2 18:26:10 10° NNW 18:31:38 51° WSW 18:37:06 10° S
SL-8 Rocket 4.0 18:26:09 10° N 18:32:23 84° E 18:38:37 10° S
Cosmos 1408 Rocket 3.5 18:30:05 10° S 18:34:17 59° E 18:38:31 10° NNE
Cosmos 44 Rocket 3.1 18:30:45 10° SSW 18:35:23 74° ESE 18:40:06 10° NNE
NOAA 12 4.2 18:30:22 10° SSE 18:35:26 54° ENE 18:40:33 10° N
Cosmos 1656 Rocket 3.9 18:30:31 10° N 18:35:44 43° ENE 18:40:59 10° SE
Cosmos 1300 2.8 18:33:27 10° N 18:37:16 80° W 18:41:05 10° S
Cosmos 2218 Rocket 3.9 18:31:14 10° N 18:37:24 76° E 18:43:32 10° S
NOSS 3-4 (A) 4.2 18:33:08 10° NNW 18:39:53 44° NE 18:47:04 10° ESE
NOSS 3-4 (C) 4.2 18:33:14 10° NNW 18:39:59 44° NE 18:47:09 10° ESE
ERS-2 2.7 18:36:51 10° SE 18:40:12 34° ENE 18:43:33 10° N
Cosmos 1959 Rocket 4.5 18:35:25 10° N 18:41:46 83° E 18:48:08 10° S
SL-14 R/B 4.4 18:37:56 10° SSW 18:41:47 47° W 18:45:37 10° N
Cosmos 2151 3.8 18:38:25 10° SSE 18:42:05 29° E 18:45:09 13° NE
Cosmos 1943 Rocket 2.7 18:37:23 10° NNW 18:42:54 63° WSW 18:48:20 10° S
DMSP B5D1-3 4.5 18:39:16 10° NNE 18:44:20 67° E 18:49:24 10° S
COSMO-SKYMED 1 3.0 18:40:34 10° N 18:44:52 63° WNW 18:49:08 10° SSW
Cosmos 1500 Rocket 4.4 18:43:11 10° SSE 18:47:00 29° E 18:49:28 18° NE
CZ-4 R/B 3.3 18:44:23 10° SSW 18:48:13 35° W 18:52:07 10° NNW
SEDSat Delta rocket 4.5 18:42:26 10° WSW 18:48:54 49° SSE 18:53:17 18° E
Lacrosse 5 3.7 18:51:29 10° SSE 18:53:52 14° ESE 18:53:52 14° ESE
Cosmos 2228 Rocket 3.7 18:50:58 10° NNE 18:55:11 36° ENE 18:59:23 10° SE
SL-08 R/B 4.4 18:50:08 10° N 18:56:20 88° E 19:02:27 10° S
SL-24 R/B - RUBIN 2 3.6 18:52:18 10° NNW 18:56:41 54° ENE 19:00:44 11° SE
Cosmos 332 Rocket 4.1 18:52:07 10° S 18:56:44 45° ESE 18:59:46 20° NE
ALOS 2.5 18:54:39 10° S 18:59:17 71° WSW 19:03:58 10° NNW
FENGYUN 3A 3.8 18:55:06 10° S 19:00:26 78° WSW 19:05:49 10° NNW
Cosmos 1743 Rocket 3.6 18:56:56 10° S 19:01:12 56° E 19:05:03 12° NNE
ASTRO E2 3.5 19:00:06 10° WSW 19:03:52 42° S 19:05:23 28° ESE
Cosmos 1328 Rocket 3.4 19:05:36 10° N 19:09:58 72° E 19:14:16 10° SSE
Meteor 1-11 4.3 19:04:27 10° SSW 19:10:02 78° W 19:15:41 10° N
Thor Agena Rocket 3.8 19:07:19 20° NE 19:10:38 46° E 19:15:36 10° S
Meteor 1-27 4.1 19:05:12 10° N 19:10:55 73° E 19:16:42 10° SSE
Cosmos 1346 Rocket 2.6 19:09:18 10° N 19:13:13 89° E 19:17:05 10° S
Cosmos 909 Rocket 4.5 19:10:11 10° NNW 19:16:25 39° NE 19:18:04 34° E
H-2A R/B 2.6 19:15:22 10° SSE 19:19:08 89° E 19:22:59 10° N
COSMOS 2406 3.2 19:13:34 10° SSW 19:19:19 90° WNW 19:23:40 18° NNE
Cosmos 1821 Rocket 4.1 19:14:45 10° N 19:20:42 49° E 19:26:42 10° SSE
Meteor 2-15 Rocket 4.5 19:16:08 10° SSE 19:22:04 53° E 19:26:48 16° NNE
FengYun 1-2 T 4.1 19:20:17 10° SSE 19:25:56 84° ENE 19:31:34 10° NNW
SPOT 3 Rocket 4.4 19:21:41 10° S 19:26:40 51° W 19:31:42 10° NNW
Nadezhda 3 Rocket 4.0 19:22:15 10° S 19:28:34 84° W 19:34:58 10° N
Tiangong 1 3.9 19:31:58 10° NW 19:31:58 10° NW 19:31:58 10° NW
Cosmos 1455 2.2 19:31:39 10° N 19:35:29 76° W 19:39:16 10° S
CZ-4C R/B 3.3 19:33:22 10° S 19:35:51 25° SSE 19:35:51 25° SSE
USA 81 4.2 19:33:49 10° S 19:39:04 72° W 19:44:21 10° N
Cosmos 371 Rocket 3.5 19:37:49 10° SSW 19:42:35 67° WNW 19:44:16 39° N
Cosmos 1151 Rocket 3.3 19:43:34 10° NNW 19:47:55 66° W 19:52:14 10° S
Cosmos 2208 Rocket 3.9 19:45:12 10° SSW 19:50:27 85° WNW 19:51:09 68° N
OAO 3 Rocket 3.5 19:50:11 10° W 19:54:22 59° SW 19:54:22 59° SW
GEOS 3 Rocket 3.8 19:59:26 63° NNW 19:59:26 63° NNW 20:03:59 10° NNW
Cosmos 1934 Rocket 3.9 19:54:09 10° N 20:05:23 18° SSE 20:06:53 10° S
Lacrosse 5 3.9 20:31:19 10° SW 20:33:08 22° SW 20:33:08 22° SW
